This is the latest recevied weather packets stored in our database for station/object W4ZHA. If no packets are shown the sender has not sent any weather packets the latest 10 day(s).
| Time | Temp. | Humidity | Pressure | Rain* | Wind** | Luminosity | Snow |
|---|---|---|---|---|---|---|---|
| 1777684754 | 17.78° C | 60% | 1014.1 hPa | 0 mm | - | 0 W/m² | - |
| 1777684450 | 17.78° C | 61% | 1014.1 hPa | 0 mm | - | 0 W/m² | - |
| 1777684148 | 17.22° C | 60% | 1013.8 hPa | 0 mm | - | 0 W/m² | - |
| 1777683844 | 17.22° C | 61% | 1013.8 hPa | 0 mm | - | 0 W/m² | - |
| 1777683541 | 17.78° C | 61% | 1013.4 hPa | 0 mm | - | 0 W/m² | - |
| 1777683239 | 17.78° C | 58% | 1013.4 hPa | 0 mm | - | 0 W/m² | - |
| 1777682936 | 17.22° C | 61% | 1013.4 hPa | 0 mm | - | 0 W/m² | - |
| 1777682632 | 17.78° C | 58% | 1013 hPa | 0 mm | - | 0 W/m² | - |
| 1777682329 | 17.78° C | 57% | 1013 hPa | 0 mm | - | 0 W/m² | - |
| 1777682026 | 17.78° C | 57% | 1013 hPa | 0 mm | - | 0 W/m² | - |
| 1777681723 | 17.78° C | 57% | 1013 hPa | 0 mm | - | 0 W/m² | - |
| 1777681420 | 17.78° C | 58% | 1013 hPa | 0 mm | - | 0 W/m² | - |
| 1777681117 | 17.78° C | 58% | 1013 hPa | 0 mm | - | 0 W/m² | - |
| 1777680815 | 18.33° C | 57% | 1012.7 hPa | 0 mm | - | 0 W/m² | - |
| 1777680512 | 18.33° C | 58% | 1012.3 hPa | 0 mm | - | 0 W/m² | - |
| 1777680210 | 18.33° C | 57% | 1012.7 hPa | 0 mm | - | 3 W/m² | - |
| 1777679906 | 18.33° C | 58% | 1012.7 hPa | 0 mm | - | 5 W/m² | - |
| 1777679602 | 18.89° C | 56% | 1012.7 hPa | 0 mm | - | 9 W/m² | - |
| 1777679297 | 18.89° C | 55% | 1012.7 hPa | 0 mm | - | 12 W/m² | - |
| 1777678995 | 18.89° C | 56% | 1012.3 hPa | 0 mm | - | 16 W/m² | - |
| 1777678693 | 18.89° C | 54% | 1012.7 hPa | 0 mm | - | 18 W/m² | - |
| 1777678390 | 19.44° C | 51% | 1012.7 hPa | 0 mm | - | 20 W/m² | - |
| 1777678086 | 20° C | 56% | 1012.7 hPa | 0 mm | - | 23 W/m² | - |
| 1777677783 | 20° C | 56% | 1012.7 hPa | 0 mm | - | 25 W/m² | - |
| 1777677481 | 20° C | 56% | 1012.7 hPa | 0 mm | - | 29 W/m² | - |
* Rain latest hour (hover to see other rain measurements)
** Current wind speed in m/s (hover to see current wind gust speed)